{"data":{"norad_id":63037,"epoch":"2026-05-25T00:49:44.744160Z","epoch_age_seconds":72254,"freshness":"FRESH","line1":"1 63037U 25034J   26145.03454565  .00350520  00000+0  10241-1 0  9996","line2":"2 63037  53.1582 263.6487 0001637  86.2250 273.8939 15.33357900 70779","mean_motion":15.333579,"eccentricity":0.0001637,"inclination_deg":53.1582,"raan_deg":263.6487,"arg_perigee_deg":86.225,"mean_anomaly_deg":273.8939,"bstar":0.010241,"rev_number":7077,"period_min":93.911538852084,"perigee_km":464.68198219594,"apogee_km":466.92268793424,"semimajor_km":6843.9393350651,"source":"CELESTRAK","updated_at":"2026-05-25T13:38:19.866850Z"}}